Location: Cotdoussan
(43.0366°N, 0.0068°E)
Time: 18:33:40
(UTC+00:00)

BREEZE-M DEB (TANK) - Visible Passes

Search period start: 13 November 2025 00:00
Search period end: 23 November 2025 00:00
Orbit: 281 x 14715 km, 49.5° (Epoch: 13 November)

Date Brightness Start Highest point End Pass type
(mag) Time Alt. Az. Time Alt. Az. Time Alt. Az.
13 Nov 7.7 03:07:09 10° S 03:48:14 30° SE 04:00:04 10° E visible
14 Nov 8.1 01:49:33 10° SSE 02:15:35 16° SE 02:28:01 10° E visible
15 Nov 6.1 04:59:39 10° SSW 05:39:26 57° SE 05:47:15 10° ENE visible
16 Nov 7.2 03:22:33 10° S 04:08:26 39° SE 04:19:21 10° ENE visible
17 Nov 7.9 01:56:32 10° S 02:35:46 24° SE 02:49:28 10° E visible
18 Nov 8.3 00:55:29 10° SE 01:02:26 11° SE 01:08:03 10° ESE visible
18 Nov 5.6 05:20:41 10° SW 05:57:59 70° SSE 06:04:59 10° ENE visible
19 Nov 6.7 03:39:24 10° SSW 04:27:21 48° SE 04:37:12 10° ENE visible
20 Nov 7.7 02:06:54 10° S 02:54:51 32° SE 03:08:09 10° E visible
21 Nov 8.1 00:50:16 10° SSE 01:21:09 17° SE 01:35:19 10° E visible
21 Nov 5.2 05:41:44 10° SW 06:15:20 84° SSE 06:21:39 10° ENE visible
22 Nov 6.3 03:57:13 10° SSW 04:44:56 58° SE 04:53:48 10° ENE visible
